Location: Seasalter
(51.3333°N, 1.0167°E)
Time: 23:25:39
(UTC+00:00)

Meteor 1-26 Rocket - Pass Details

Date: 26 September 2023
Orbit: 809 x 925 km, 81.3° (Epoch: 11 December)

Event Time Altitude Azimuth Distance (km) Brightness Sun altitude
Exits shadow 04:02:02 10° 198° (SSW) 2,604 6.4 -17.0°
Reaches altitude 10° 04:02:04 10° 198° (SSW) 2,593 6.4 -17.0°
Maximum altitude 04:07:59 75° 284° (WNW) 930 4.2 -16.1°
Drops below altitude 10° 04:13:48 10° 10° (N) 2,539 7.1 -15.3°
Sets 04:16:13 0° 12° (NNE) 3,463 7.8 -14.9°
